Regional Weather Roundup
Issued by NWS

Home | Current Version | Previous Version | Text Only | Print | Product List | Glossary Off
Versions: 1 2 3 4 5 6 7 8 9 10 11 12 13 14 15 16 17 18 19 20 21 22 23 24 25 26 27 28

000
ASUS45 KSLC 191910
RWRUT

UTAH REGIONAL WEATHER ROUNDUP
NATIONAL WEATHER SERVICE SALT LAKE CITY UT
1200 PM MST SUN FEB 19 2017

UTZ001>011-023>025-192000-

NORTHERN UTAH

CITY           SKY/WX    TMP DP  RH WIND       PRES   REMARKS
BRIGHAM CITY     N/A     49  39  68 SW5       29.71S
HILL AFB       CLOUDY    46  39  77 S10       29.70R
LOGAN          CLOUDY    49  36  61 NE6       29.69S
OGDEN          PTSUNNY   49  40  71 S7        29.69S
SALT LAKE CITY PTSUNNY   47  40  76 S6        29.70R
TOOELE VALLEY  CLOUDY    50  43  76 S8        29.71S
WENDOVER       PTSUNNY   52  34  50 W10G16    29.71R
HEBER CITY     MIX PCPN  43  36  75 S12G20    29.69R
WEST JORDAN    CLOUDY    48  48 100 CALM      29.71S

$$

UTZ011>015-024>027-192000-

CENTRAL/NORTHEAST UTAH

CITY           SKY/WX    TMP DP  RH WIND       PRES   REMARKS
PROVO AIRPORT  LGT RAIN  48  40  73 SE10      29.72S
MOAB/CANYONLAN CLOUDY    45  43  93 W7        29.75S
DELTA          CLOUDY    50  37  62 S17       29.73S
PRICE          LGT RAIN  37  37 100 CALM      29.74S FOG
RICHFIELD      CLOUDY    46  39  76 W1        29.76  HAZE
ROOSEVELT      MIX PCPN  39  36  87 CALM      29.75S
VERNAL         LGT RAIN  37  37 100 CALM      29.72F

$$

UTZ013>016-019>022-027-192000-

SOUTHERN UTAH

CITY           SKY/WX    TMP DP  RH WIND       PRES   REMARKS
BRYCE CANYON   FOG       33  32  96 SE6       29.81R VSB 1/2 WCI  28
CEDAR CITY     CLOUDY    46  36  68 SW16G25   29.79S
MILFORD        PTSUNNY   50  39  66 S23G33    29.76R
ST GEORGE      CLOUDY    51  43  74 W7        29.85R
HANKSVILLE     CLOUDY    45  41  87 S7        29.77F
KANAB          CLOUDY    45  41  87 SW13      29.89
BLANDING       PTSUNNY   42  36  77 S14       29.90S

$$

REGIONAL REPORTS     COLORADO/ARIZONA

CITY           SKY/WX    TMP DP  RH WIND       PRES   REMARKS
CRAIG, CO      CLOUDY    44  30  57 NE5       29.71F
GRAND JUNCTION CLOUDY    47  37  68 NW12      29.73R
RIFLE, CO      CLOUDY    44  33  65 W6        29.71F
MONTROSE, CO   LGT RAIN  44  33  65 SW16G25   29.79R
CORTEZ, CO     CLOUDY    41  38  89 NE8       29.85F
COLORADO CITY  LGT RAIN  45  41  87 SW7       29.89R
PAGE, AZ       LGT RAIN  45  35  68 S13       29.83S
GRAND CANYON   CLOUDY    34  33  96 SW14      29.89R WCI  25
KINGMAN, AZ    CLOUDY    51  38  60 SW13      29.89R
FLAGSTAFF, AZ  LGT SNOW  33  31  92 SW16      29.90S FOG     WCI  23

$$

REGIONAL REPORTS    NEVADA/IDAHO/WYOMING

CITY           SKY/WX    TMP DP  RH WIND       PRES   REMARKS
LAS VEGAS, NV  PTSUNNY   59  41  51 S9        29.82R
ELY, NY        MOSUNNY   42  32  67 SW9       29.78R
ELKO, NV       MOSUNNY   49  32  52 S17G23    29.70S
POCATELLO, ID  PTSUNNY   45  36  70 SW12      29.68R
BURLEY, ID     CLOUDY    47  36  65 SW6       29.65S
FORT BRIDGER,  CLOUDY    37  36  97 W16       29.72S WCI  27
EVANSTON, WY   FOG       33  31  92 SW12      29.70R VSB 1/4 WCI  24
ROCK SPRINGS,  CLOUDY    39  30  70 W16       29.69R WCI  30
KEMMERER, WY     N/A     36  32  87 SW16      29.68S WCI  26

$$




USA.gov is the U.S. government's official web portal to all federal, state and local government web resources and services.